[[{"header":{"parameterUnit":"m.s-1","parameterCategory":1,"la1":30.2991,"la2":30.254,"lo1":-89.0895,"lo2":-89.0444,"dy":0.0017,"dx":0.0017,"nx":28,"ny":28,"refTime":"2025-08-16T03:00:00:Z","depth":0,"parameterNumber":2,"parameterNumberName":"U-component_of_WINDS"},"data":[0,0,0,0,0,0,0,0,0,0,0,0,0,0,0,0,0,0,0,0,0,0,0,0,0,0,0,0,0,0,0,0,0,0,0,0,0,0,0,0,0,0,0,0,0,0,0,0,0,0,0,0,0,0,0,0,0,0,1.4191,1.4192,0,1.4237,1.4238,1.4238,1.4214,1.4212,1.4211,1.421,1.4258,1.426,1.4263,0,0,0,0,0,0,0,0,0,0,0,0,0,1.4084,1.4086,1.4191,1.4192,1.4192,1.4237,1.4238,1.4238,1.4214,1.4212,1.4211,1.4209,1.4257,1.426,1.4263,0,0,0,0,0,0,0,0,0,0,0,0,0,1.413,1.4087,1.4191,1.4185,1.4185,1.4237,1.4238,1.4239,1.4214,1.4212,1.421,1.4209,1.4256,1.426,1.4263,1.4324,0,0,1.4275,1.4276,0,0,0,0,0,0,0,0,1.4128,1.4134,1.4186,1.4186,1.4186,1.4218,1.4218,1.4267,1.4215,1.4203,1.421,1.4208,1.4246,1.4251,1.4263,1.4326,1.4328,1.4275,1.4277,1.4279,1.428,0,0,0,0,0,0,0,1.4124,1.4132,1.4209,1.4186,1.4187,1.4181,1.4186,1.4227,1.4235,1.4204,1.4202,1.4208,1.4246,1.426,1.4264,1.4329,1.4275,1.4278,1.428,1.4282,1.4445,1.4447,0,0,0,0,0,0,1.4121,1.413,1.4208,1.4211,1.4152,1.4185,1.419,1.4209,1.4234,1.4236,1.421,1.4207,1.4255,1.426,1.4266,1.4339,1.4279,1.4282,1.4284,1.4443,1.4445,1.4448,0,0,0,0,0,0,1.4119,1.4129,1.4206,1.417,1.4179,1.4189,1.4211,1.4211,1.4225,1.4238,1.424,1.4222,1.4253,1.4261,1.431,1.4341,1.4284,1.4287,1.444,1.4444,1.4447,1.4486,0,0,0,0,0,0,1.4116,1.4128,1.415,1.417,1.4181,1.4249,1.4213,1.4214,1.4232,1.4228,1.4251,1.4253,1.4252,1.4305,1.4313,1.4345,1.429,1.4438,1.4442,1.4446,1.4482,1.449,1.4497,0,0,0,0,0,1.4112,1.4159,1.4151,1.4161,1.4209,1.425,1.4257,1.4255,1.4234,1.4257,1.4266,1.4252,1.4336,1.431,1.432,1.4352,1.4436,1.4441,1.4445,1.4479,1.4488,1.4497,0,0,0,0,0,0,1.4142,1.4162,1.4153,1.4208,1.4228,1.4246,1.4275,1.4265,1.4292,1.4288,1.4285,1.429,1.4342,1.4352,1.4322,1.4413,1.4383,1.439,1.4404,1.4414,1.4421,1.4418,1.4293,0,0,0,0,0,1.4155,1.4187,1.4202,1.4249,1.4259,1.4266,1.4283,1.4281,1.4301,1.4309,1.4322,1.4343,1.4374,1.4394,1.4424,1.4483,1.4489,1.4511,1.4518,1.4524,1.4531,1.4565,1.4576,1.4463,1.4463,1.4463,0,0,1.4182,1.4197,1.4217,1.4255,1.427,1.4304,1.4273,1.4309,1.4334,1.4315,1.4362,1.4372,1.4396,1.4451,1.4476,1.4461,1.4563,1.4531,1.4535,1.4538,1.4571,1.4582,1.4591,1.4467,1.4466,1.4466,0,0,1.4249,1.4262,1.4304,1.432,1.4343,1.4347,1.4357,1.4377,1.4383,1.4431,1.4418,1.4448,1.4501,1.4519,1.4535,1.461,1.4599,1.462,1.466,1.4693,1.4702,1.471,1.4738,1.4748,1.4626,1.4626,1.4626,0,1.428,1.4329,1.4326,1.4364,1.4382,1.4367,1.4409,1.4425,1.4457,1.447,1.4453,1.4521,1.4535,1.4595,1.4614,1.4627,1.4639,1.4618,1.4701,1.4709,1.4716,1.4743,1.4754,1.4629,1.4628,1.4628,1.4628,0,1.4366,1.4401,1.4432,1.4463,1.4485,1.4524,1.4529,1.4551,1.4547,1.4553,1.4603,1.462,1.4653,1.4667,1.4663,1.4727,1.4718,1.4701,1.467,1.4729,1.4755,1.4765,1.4632,1.4631,1.4631,1.463,0,0,1.4453,1.4483,1.4494,1.4509,1.4535,1.4562,1.4602,1.4634,1.4654,1.4677,1.4712,1.4758,1.4743,1.4761,1.4759,1.4789,1.4849,1.4768,1.4769,1.4784,1.4923,1.4937,1.4949,1.4842,1.4844,1.4845,1.4922,0,1.4522,1.4591,1.4591,1.4656,1.4689,1.4675,1.471,1.473,1.4738,1.4767,1.4776,1.4809,1.4786,1.4798,1.4826,1.4836,1.4878,1.483,1.4875,1.4877,1.4871,1.4962,1.4976,1.5047,1.4932,1.4933,1.4935,0,1.4612,1.4638,1.4707,1.4729,1.4743,1.4774,1.4805,1.4833,1.4856,1.486,1.4881,1.4875,1.4917,1.4885,1.4944,1.4912,1.493,1.4938,1.4941,1.4946,1.491,1.497,1.5069,1.5081,1.495,1.4949,1.4948,0,1.467,1.4722,1.477,1.4783,1.481,1.4833,1.4845,1.4866,1.4887,1.4914,1.4927,1.4959,1.4977,1.5002,1.5005,1.4981,1.5065,1.5033,1.5071,1.5071,1.5089,1.5088,1.5194,1.5099,1.5099,1.5099,1.5099,0,1.4748,1.4791,1.4797,1.4827,1.4875,1.4874,1.4922,1.4932,1.4952,1.4984,1.4974,1.5005,1.5007,1.5039,1.5042,1.5091,1.5099,1.5104,1.5104,1.5105,1.5105,1.5118,1.5114,1.5102,1.5101,1.5101,1.51,0,1.4821,1.4827,1.4879,1.49,1.4906,1.4941,1.496,1.4989,1.4996,1.5037,1.5047,1.5058,1.5095,1.5101,1.5144,1.5146,1.5206,1.5201,1.5198,1.5198,1.5236,1.5233,1.5355,1.5371,1.5265,1.5266,1.5267,0,1.4871,1.4904,1.4929,1.495,1.4963,1.4997,1.5018,1.5019,1.5042,1.5071,1.5097,1.5133,1.5163,1.5223,1.5236,1.527,1.5266,1.5306,1.5271,1.5272,1.5268,1.5267,1.5271,1.5313,1.5314,1.5315,1.5316,0,1.496,1.4961,1.4992,1.5024,1.5049,1.5074,1.5098,1.5116,1.5121,1.5146,1.5185,1.5207,1.5252,1.5289,1.5323,1.5337,1.5328,1.5327,1.5338,1.534,1.5338,1.5341,1.5218,1.5325,1.5324,1.5323,1.5323,1.5322,1.5024,1.5053,1.5076,1.511,1.5129,1.5151,1.518,1.5191,1.5223,1.526,1.5258,1.5301,1.5325,1.537,1.5386,1.542,1.5407,1.5422,1.5426,1.543,1.5434,1.5332,1.5426,1.5425,1.5425,1.5425,1.5425,0,1.5113,1.5128,1.5159,1.5193,1.5221,1.521,1.5236,1.5261,1.5298,1.5321,1.535,1.5395,1.5431,1.5447,1.5483,1.5507,1.5504,1.5517,1.5515,1.5519,1.5443,1.5431,1.5518,1.5518,1.5518,1.5518,1.5518,1.5518,1.5163,1.5213,1.5217,1.5276,1.529,1.5331,1.5348,1.5369,1.5388,1.5438,1.5468,1.5478,1.5499,1.5536,1.557,1.5573,1.5588,1.5602,1.5605,1.5534,1.5524,1.5515,1.5504,1.5605,1.5605,1.5678,1.5679,1.5679]},{"header":{"parameterUnit":"m.s-1","parameterCategory":1,"la1":30.2991,"la2":30.254,"lo1":-89.0895,"lo2":-89.0444,"dy":0.0017,"dx":0.0017,"nx":28,"ny":28,"refTime":"2025-08-16T03:00:00:Z","depth":0,"parameterNumber":3,"parameterNumberName":"V-component_of_WINDS"},"data":[0,0,0,0,0,0,0,0,0,0,0,0,0,0,0,0,0,0,0,0,0,0,0,0,0,0,0,0,0,0,0,0,0,0,0,0,0,0,0,0,0,0,0,0,0,0,0,0,0,0,0,0,0,0,0,0,0,0,-1.8841,-1.8842,0,-1.892,-1.8921,-1.8922,-1.894,-1.894,-1.8939,-1.8939,-1.9018,-1.902,-1.9023,0,0,0,0,0,0,0,0,0,0,0,0,0,-1.8705,-1.8707,-1.8841,-1.8842,-1.8843,-1.892,-1.8921,-1.8922,-1.894,-1.894,-1.8939,-1.8939,-1.9017,-1.902,-1.9023,0,0,0,0,0,0,0,0,0,0,0,0,0,-1.8772,-1.8708,-1.8841,-1.8861,-1.8864,-1.892,-1.8921,-1.8922,-1.8941,-1.894,-1.8939,-1.8938,-1.9016,-1.902,-1.9023,-1.9064,0,0,-1.9035,-1.9037,0,0,0,0,0,0,0,0,-1.8768,-1.8777,-1.8857,-1.886,-1.8863,-1.892,-1.8902,-1.897,-1.8941,-1.8911,-1.8939,-1.8938,-1.8986,-1.8992,-1.9008,-1.9067,-1.9071,-1.9036,-1.9038,-1.904,-1.9041,0,0,0,0,0,0,0,-1.8763,-1.8773,-1.8872,-1.8859,-1.8862,-1.8866,-1.8875,-1.8915,-1.8952,-1.8914,-1.8916,-1.8925,-1.8987,-1.9005,-1.901,-1.9072,-1.9036,-1.9039,-1.9042,-1.9043,-1.9168,-1.9169,0,0,0,0,0,0,-1.8755,-1.8769,-1.887,-1.8875,-1.8813,-1.8869,-1.8879,-1.8902,-1.8952,-1.8958,-1.8925,-1.8925,-1.8998,-1.9006,-1.9013,-1.9064,-1.904,-1.9043,-1.9046,-1.9167,-1.9168,-1.9169,0,0,0,0,0,0,-1.8752,-1.8764,-1.8867,-1.8823,-1.8836,-1.8873,-1.8898,-1.8904,-1.8922,-1.896,-1.8967,-1.8937,-1.8998,-1.9008,-1.9051,-1.9067,-1.9045,-1.9049,-1.9166,-1.9168,-1.9169,-1.9165,0,0,0,0,0,0,-1.8748,-1.8763,-1.8779,-1.8823,-1.8838,-1.8903,-1.8899,-1.8906,-1.8929,-1.893,-1.8973,-1.8979,-1.8998,-1.9045,-1.9055,-1.9072,-1.9052,-1.9165,-1.9167,-1.9168,-1.9164,-1.9166,-1.9168,0,0,0,0,0,-1.8743,-1.8774,-1.8779,-1.8791,-1.8859,-1.8904,-1.8913,-1.8935,-1.893,-1.8946,-1.8971,-1.8978,-1.9064,-1.905,-1.9061,-1.9079,-1.9164,-1.9166,-1.9168,-1.9163,-1.9165,-1.9168,0,0,0,0,0,0,-1.8729,-1.878,-1.8787,-1.8832,-1.8864,-1.8907,-1.8928,-1.8937,-1.8971,-1.897,-1.8995,-1.9005,-1.9047,-1.9067,-1.9051,-1.9121,-1.9114,-1.9118,-1.9105,-1.9108,-1.911,-1.9104,-1.9055,0,0,0,0,0,-1.8732,-1.8765,-1.8807,-1.8843,-1.8859,-1.8891,-1.8912,-1.8926,-1.896,-1.8973,-1.9001,-1.9033,-1.9067,-1.9089,-1.9123,-1.9167,-1.9177,-1.9185,-1.9187,-1.9189,-1.9192,-1.9217,-1.9221,-1.9177,-1.9177,-1.9177,0,0,-1.8737,-1.8768,-1.8788,-1.8841,-1.8868,-1.8901,-1.8902,-1.8937,-1.8962,-1.8978,-1.9021,-1.9043,-1.908,-1.9124,-1.9145,-1.9142,-1.9207,-1.9191,-1.9192,-1.9195,-1.922,-1.9224,-1.9228,-1.9178,-1.9178,-1.9178,0,0,-1.8763,-1.879,-1.8824,-1.8851,-1.8891,-1.8912,-1.892,-1.8962,-1.8978,-1.9021,-1.9034,-1.9064,-1.9123,-1.9149,-1.917,-1.9207,-1.9214,-1.9217,-1.9228,-1.9252,-1.9256,-1.9259,-1.9272,-1.9277,-1.9221,-1.9221,-1.9221,0,-1.8764,-1.8815,-1.884,-1.8875,-1.8898,-1.8915,-1.8949,-1.8973,-1.9022,-1.9038,-1.9034,-1.9109,-1.9135,-1.9186,-1.9195,-1.9212,-1.9221,-1.9212,-1.9253,-1.9257,-1.926,-1.9273,-1.9278,-1.9221,-1.9221,-1.9221,-1.9221,0,-1.8814,-1.885,-1.8872,-1.892,-1.8946,-1.898,-1.9009,-1.9032,-1.9045,-1.9066,-1.9111,-1.9143,-1.9184,-1.9197,-1.9209,-1.925,-1.9247,-1.9248,-1.9242,-1.9264,-1.9277,-1.9282,-1.9221,-1.9221,-1.9221,-1.9221,0,0,-1.8833,-1.8895,-1.8902,-1.8924,-1.897,-1.8998,-1.9033,-1.9074,-1.9093,-1.9127,-1.9157,-1.9207,-1.9208,-1.9232,-1.9248,-1.9269,-1.9297,-1.9268,-1.9269,-1.9272,-1.9343,-1.9342,-1.9347,-1.9302,-1.9303,-1.9304,-1.934,0,-1.8864,-1.8928,-1.8952,-1.9004,-1.9037,-1.9054,-1.9085,-1.9117,-1.9138,-1.9169,-1.9192,-1.9227,-1.9227,-1.9241,-1.9264,-1.9289,-1.9311,-1.9287,-1.933,-1.9331,-1.9319,-1.9354,-1.9352,-1.9384,-1.9345,-1.9346,-1.9347,0,-1.8909,-1.8944,-1.9,-1.9043,-1.9058,-1.9085,-1.9124,-1.9154,-1.919,-1.9204,-1.9231,-1.9246,-1.9283,-1.9275,-1.9327,-1.9309,-1.9329,-1.9344,-1.9346,-1.935,-1.934,-1.9358,-1.9395,-1.94,-1.9355,-1.9354,-1.9354,0,-1.8917,-1.8978,-1.9019,-1.9038,-1.9089,-1.9107,-1.9129,-1.9165,-1.9188,-1.9223,-1.9238,-1.9276,-1.9297,-1.9326,-1.935,-1.9342,-1.94,-1.9393,-1.9412,-1.9411,-1.9422,-1.9421,-1.9462,-1.9436,-1.9436,-1.9436,-1.9436,0,-1.8949,-1.8983,-1.9024,-1.9049,-1.9087,-1.9114,-1.915,-1.9173,-1.9205,-1.9235,-1.9252,-1.928,-1.9311,-1.9342,-1.9361,-1.9401,-1.9411,-1.9423,-1.9427,-1.9421,-1.9419,-1.9433,-1.9431,-1.9437,-1.9437,-1.9436,-1.9436,0,-1.8964,-1.8993,-1.9039,-1.9084,-1.9096,-1.9122,-1.916,-1.9185,-1.9208,-1.9246,-1.9256,-1.9291,-1.933,-1.9357,-1.9406,-1.9419,-1.9462,-1.9466,-1.9449,-1.9452,-1.9468,-1.9466,-1.9519,-1.9527,-1.9496,-1.9496,-1.9496,0,-1.8982,-1.9008,-1.9057,-1.9078,-1.9101,-1.9135,-1.9159,-1.9187,-1.9211,-1.9255,-1.9275,-1.9315,-1.9348,-1.9408,-1.9438,-1.9475,-1.9481,-1.9497,-1.9486,-1.9479,-1.9481,-1.9479,-1.9481,-1.9498,-1.9498,-1.9498,-1.9498,0,-1.9012,-1.9025,-1.9059,-1.9099,-1.9128,-1.916,-1.9193,-1.9209,-1.9243,-1.9269,-1.9309,-1.9335,-1.9385,-1.9424,-1.9465,-1.9488,-1.9499,-1.9502,-1.9508,-1.9501,-1.949,-1.9496,-1.9453,-1.95,-1.95,-1.95,-1.95,-1.95,-1.9029,-1.9053,-1.9091,-1.9129,-1.9156,-1.9187,-1.9213,-1.9239,-1.9273,-1.9317,-1.9331,-1.9372,-1.9409,-1.9465,-1.9488,-1.952,-1.9519,-1.9528,-1.9531,-1.9532,-1.9532,-1.9486,-1.9528,-1.9528,-1.9528,-1.9528,-1.9528,0,-1.9059,-1.9084,-1.9119,-1.9165,-1.9195,-1.9203,-1.924,-1.9264,-1.9301,-1.9334,-1.9367,-1.9412,-1.9451,-1.9484,-1.9524,-1.9543,-1.9549,-1.9553,-1.9551,-1.9556,-1.953,-1.9521,-1.9547,-1.9547,-1.9547,-1.9547,-1.9547,-1.9547,-1.9078,-1.912,-1.9138,-1.9193,-1.9219,-1.926,-1.928,-1.9308,-1.9335,-1.9385,-1.9418,-1.9439,-1.9473,-1.9515,-1.9551,-1.9559,-1.9573,-1.9575,-1.9585,-1.956,-1.9558,-1.9556,-1.9547,-1.9578,-1.9578,-1.9608,-1.9608,-1.9608]}]]